Regional Weather Roundup
Issued by NWS New Orleans/Baton Rouge, LA

Home | Current Version | Previous Version | Text Only | Print | Product List | Glossary On
Versions: 1 2 3 4 5 6 7 8 9 10 11 12 13 14 15 16 17 18 19 20 21 22 23 24 25 26 27 28 29 30 31 32 33 34 35 36 37 38 39 40 41 42 43 44 45 46 47 48 49 50
629
ASUS44 KLIX 232005
RWRLIX
NEW ORLEANS REGIONAL WEATHER ROUNDUP
NATIONAL WEATHER SERVICE NEW ORLEANS LA
300 PM CDT THU OCT 23 2014

NOTE: "FAIR" INDICATES FEW OR NO CLOUDS BELOW 12,000 FEET WITH NO
      SIGNIFICANT WEATHER AND/OR OBSTRUCTIONS TO VISIBILITY.
      SKY/WX - SKY CONDITION AND SIGNIFICANT WEATHER.
      TMP - AIR TEMPERATURE.     DP    - DEWPOINT TEMPERATURE.
      RH  - RELATIVE HUMIDITY.   PRES  - PRESSURE.
      HI  - HEAT INDEX.          WCI   - WIND CHILL INDEX.

*  THESE STATIONS ARE NOT NWS OR FAA STATIONS AND ARE NOT UNDER
   NWS QUALITY CONTROL.

LAZ038-040-048-061>063-065>067-069-232100-
SOUTHEAST LOUISIANA

CITY           SKY/WX    TMP DP  RH WIND       PRES   REMARKS
N.O. AUDUBON     N/A     74  50  42 MISG        N/A
N.O. INTL ARPT MOSUNNY   73  45  36 N10       30.04F
N.O. LAKEFRONT SUNNY     74  45  35 NE9       30.05F
N.O. DOWNTOWN*   N/A     73  45  35 NE8       30.05F
SLIDELL        SUNNY     75  45  34 N6        30.04F
BATON ROUGE    MOSUNNY   76  47  35 VRB3      30.05F
BOOTHVILLE     SUNNY     73  58  59 NE10      30.03F
BELLE CHASSE   MOSUNNY   74  44  34 NE10      30.04F
BOGALUSA*        N/A     77  40  26 NE5       30.06F
NEW ROADS*       N/A     71  48  45 NW6       30.07S
GONZALES*        N/A     75  47  36 NE3       30.04F
HAMMOND*       SUNNY     77  39  25 N3        30.06F
HOUMA*         SUNNY     79  48  34 NE7       30.03F
PORT FOURCHON* CLEAR     73  55  53 NE13      30.06S

$$

MSZ070-080>082-232100-
SOUTHERN MISSISSIPPI

CITY           SKY/WX    TMP DP  RH WIND       PRES   REMARKS
MCCOMB         CLOUDY    72  42  34 NE6       30.07F
GULFPORT       SUNNY     75  42  30 N6        30.03F
BILOXI         SUNNY     74  44  33 NE5       30.04F
PASCAGOULA     SUNNY     75  42  30 MISG      30.03F
STENNIS ARPT*  SUNNY     73  39  29 VRB5      30.04F

$$

COASTAL OBSERVATIONS
LAKE AND NEARSHORE STATIONS

STATION/POSITION TIME  TEMP    WIND        PRES    WAVE
                       AIR SEA DIR/SP/G            HT/PER
                 (UTC) (F)     (DEG/KT/KT) (MB)    (FT/S)
PASCAGOULA       2000   73     170/  8/ 11 1016.5
WAVELAND YACHT   2000   68     160/  7/  8 1016.6
GRAND ISLE       2000   72 74   60/  9/ 13 1017.4
SOUTHWEST PASS   2000   83 81              1016.6
NEW CANAL        2000   69 71   30/  7/  9 1017.9
SHELL BEACH      2000   69 69   40/ 11/ 13 1017.3

OFFSHORE STATIONS

STATION/POSITION TIME  TEMP    WIND        PRES    WAVE
                       AIR SEA DIR/SP/G            HT/PER
                 (UTC) (F)     (DEG/KT/KT) (MB)    (FT/S)
64 S DAUPHIN ISL 1910   72 80   70/ 12/ 17 1016.7    3/ 6

$$




USA.gov is the U.S. government's official web portal to all federal, state and local government web resources and services.